When you browse on this site, cookies collect data to enhance your experience and personalize the content and advertising you see.
Visit our Privacy Policy to learn more. By continuing to use the site, you agree to this use of cookies and data.
  • Em Portugal
  • Lista de países
  • Para 7 dias
  • Temperatura da água
  • Mapa do tempo
  • Widgets de tempo
  • user-avatar
    Iniciar Sessão

    Previsão horária em Yeghegnadzor

    Hoje, 17 Fevereiro, Segunda-feira

    Tempo Temperatura Precipitação Vento Pressão Humidade
    00:00 -2°C° 0 mm 1 m/s 656 mmHg 84%
    01:00 -1°C° 0.1 mm 1 m/s 656 mmHg 86%
    02:00 -1°C° 0.1 mm 1 m/s 656 mmHg 87%
    03:00 -3°C° 0 mm 2 m/s 656 mmHg 92%
    04:00 -3°C° 0.3 mm 2 m/s 656 mmHg 92%
    05:00 -3°C° 0.3 mm 2 m/s 656 mmHg 92%
    06:00 -3°C° 0.3 mm 2 m/s 656 mmHg 93%
    07:00 -3°C° 0.2 mm 2 m/s 657 mmHg 91%
    08:00 -2°C° 0.2 mm 2 m/s 657 mmHg 90%
    09:00 0°C° 0.2 mm 1 m/s 658 mmHg 88%
    10:00 0°C° 0.3 mm 1 m/s 658 mmHg 90%
    11:00 +1°C° 0.3 mm 1 m/s 657 mmHg 91%
    12:00 +1°C° 0.3 mm 1 m/s 657 mmHg 92%
    13:00 +1°C° 0.1 mm 1 m/s 657 mmHg 92%
    14:00 +1°C° 0.1 mm 1 m/s 657 mmHg 93%
    15:00 +2°C° 0.1 mm 1 m/s 657 mmHg 93%
    16:00 +1°C° 0.1 mm 1 m/s 657 mmHg 94%
    17:00 0°C° 0.1 mm 1 m/s 657 mmHg 94%
    18:00 -1°C° 0.1 mm 1 m/s 658 mmHg 95%
    19:00 -2°C° 0 mm 1 m/s 658 mmHg 93%
    20:00 -2°C° 0 mm 1 m/s 658 mmHg 91%
    21:00 -3°C° 0 mm 1 m/s 658 mmHg 89%
    22:00 -3°C° 0 mm 1 m/s 658 mmHg 88%
    23:00 -4°C° 0 mm 1 m/s 658 mmHg 87%

    Amanhã, 18 Fevereiro, Terça-feira

    Tempo Temperatura Precipitação Vento Pressão Humidade
    00:00 -4°C° 0 mm 1 m/s 658 mmHg 86%
    01:00 -4°C° 0 mm 1 m/s 658 mmHg 85%
    02:00 -4°C° 0 mm 1 m/s 658 mmHg 83%
    03:00 -6°C° 0 mm 0 m/s 658 mmHg 81%
    04:00 -6°C° 0 mm 0 m/s 658 mmHg 81%
    05:00 -5°C° 0 mm 0 m/s 658 mmHg 80%
    06:00 -5°C° 0 mm 0 m/s 658 mmHg 79%
    07:00 -4°C° 0 mm 0 m/s 659 mmHg 78%
    08:00 -2°C° 0 mm 0 m/s 660 mmHg 77%
    09:00 -1°C° 0 mm 0 m/s 660 mmHg 77%
    10:00 +1°C° 0 mm 1 m/s 660 mmHg 79%
    11:00 +1°C° 0 mm 1 m/s 659 mmHg 82%
    12:00 +2°C° 0 mm 1 m/s 659 mmHg 84%
    13:00 +2°C° 0 mm 1 m/s 659 mmHg 85%
    14:00 +3°C° 0 mm 1 m/s 659 mmHg 86%
    15:00 +3°C° 0 mm 1 m/s 658 mmHg 86%
    16:00 +2°C° 0 mm 1 m/s 658 mmHg 86%
    17:00 0°C° 0 mm 1 m/s 657 mmHg 85%
    18:00 -1°C° 0 mm 1 m/s 657 mmHg 85%
    19:00 -2°C° 0 mm 1 m/s 657 mmHg 83%
    20:00 -3°C° 0 mm 0 m/s 657 mmHg 81%
    21:00 -3°C° 0 mm 0 m/s 657 mmHg 80%
    22:00 -2°C° 0 mm 1 m/s 657 mmHg 80%
    23:00 -2°C° 0 mm 1 m/s 657 mmHg 80%

    Depois de amanhã, 19 Fevereiro, Quarta-feira

    Tempo Temperatura Precipitação Vento Pressão Humidade
    00:00 -2°C° 0 mm 1 m/s 656 mmHg 80%
    01:00 -2°C° 0 mm 1 m/s 656 mmHg 80%
    02:00 -3°C° 0 mm 1 m/s 656 mmHg 79%
    03:00 -3°C° 0 mm 1 m/s 655 mmHg 79%
    04:00 -3°C° 0 mm 1 m/s 655 mmHg 80%
    05:00 -3°C° 0 mm 1 m/s 655 mmHg 80%
    06:00 -3°C° 0 mm 1 m/s 654 mmHg 80%
    07:00 -2°C° 0 mm 1 m/s 654 mmHg 80%
    08:00 0°C° 0 mm 1 m/s 655 mmHg 79%
    09:00 +1°C° 0 mm 1 m/s 655 mmHg 79%
    10:00 +2°C° 0 mm 1 m/s 654 mmHg 82%
    11:00 +2°C° 0 mm 1 m/s 654 mmHg 84%
    12:00 +3°C° 0 mm 1 m/s 653 mmHg 87%
    13:00 +3°C° 0 mm 1 m/s 652 mmHg 87%
    14:00 +3°C° 0 mm 1 m/s 652 mmHg 88%
    15:00 +3°C° 0 mm 1 m/s 651 mmHg 88%
    16:00 +3°C° 0 mm 1 m/s 651 mmHg 87%
    17:00 +2°C° 0 mm 1 m/s 651 mmHg 86%
    18:00 0°C° 0 mm 0 m/s 650 mmHg 85%
    19:00 +1°C° 0 mm 1 m/s 650 mmHg 86%
    20:00 +1°C° 0 mm 1 m/s 650 mmHg 87%
    21:00 +1°C° 0 mm 1 m/s 650 mmHg 88%
    22:00 +1°C° 0 mm 1 m/s 650 mmHg 88%
    23:00 -1°C° 0 mm 0 m/s 649 mmHg 88%

    20 Fevereiro, Quinta-feira

    Tempo Temperatura Precipitação Vento Pressão Humidade
    00:00 -1°C° 0 mm 0 m/s 649 mmHg 88%
    01:00 -1°C° 0 mm 0 m/s 649 mmHg 87%
    02:00 0°C° 0 mm 1 m/s 648 mmHg 86%
    03:00 +1°C° 0 mm 1 m/s 648 mmHg 85%
    04:00 +1°C° 0.1 mm 1 m/s 648 mmHg 86%
    05:00 +1°C° 0.1 mm 1 m/s 648 mmHg 87%
    06:00 +1°C° 0.1 mm 1 m/s 648 mmHg 88%
    07:00 +2°C° 0.2 mm 1 m/s 648 mmHg 90%
    08:00 +3°C° 0.2 mm 1 m/s 648 mmHg 91%
    09:00 +3°C° 0.2 mm 1 m/s 648 mmHg 93%
    10:00 +4°C° 0.2 mm 1 m/s 648 mmHg 94%
    11:00 +4°C° 0.2 mm 1 m/s 648 mmHg 96%
    12:00 +4°C° 0.2 mm 1 m/s 647 mmHg 97%
    13:00 +4°C° 0.2 mm 1 m/s 647 mmHg 97%
    14:00 +4°C° 0.2 mm 1 m/s 647 mmHg 96%
    15:00 +5°C° 0.2 mm 1 m/s 646 mmHg 96%
    16:00 +4°C° 0 mm 1 m/s 646 mmHg 97%
    17:00 +4°C° 0 mm 1 m/s 647 mmHg 97%
    18:00 +3°C° 0 mm 1 m/s 647 mmHg 97%
    19:00 +3°C° 0.1 mm 1 m/s 647 mmHg 97%
    20:00 +2°C° 0.1 mm 0 m/s 647 mmHg 97%
    21:00 +2°C° 0.1 mm 0 m/s 647 mmHg 97%
    22:00 +2°C° 0 mm 0 m/s 647 mmHg 97%
    23:00 +2°C° 0 mm 0 m/s 647 mmHg 97%

    21 Fevereiro, Sexta-feira

    Tempo Temperatura Precipitação Vento Pressão Humidade
    00:00 +2°C° 0 mm 0 m/s 648 mmHg 97%
    01:00 +1°C° 0 mm 0 m/s 647 mmHg 97%
    02:00 +2°C° 0 mm 1 m/s 647 mmHg 97%
    03:00 +2°C° 0 mm 1 m/s 647 mmHg 98%
    04:00 +2°C° 0.1 mm 1 m/s 647 mmHg 97%
    05:00 0°C° 0.1 mm 0 m/s 647 mmHg 97%
    06:00 0°C° 0.1 mm 0 m/s 647 mmHg 97%
    07:00 +2°C° 0.1 mm 1 m/s 648 mmHg 97%
    08:00 +2°C° 0.1 mm 1 m/s 648 mmHg 96%
    09:00 +3°C° 0.1 mm 1 m/s 649 mmHg 96%
    16:00 +4°C° 0 mm 1 m/s 648 mmHg 92%
    17:00 +3°C° 0 mm 1 m/s 648 mmHg 91%
    18:00 +2°C° 0 mm 1 m/s 649 mmHg 91%
    19:00 +2°C° 0 mm 1 m/s 649 mmHg 90%
    20:00 +1°C° 0 mm 1 m/s 649 mmHg 89%
    21:00 +1°C° 0 mm 1 m/s 649 mmHg 88%
    22:00 +1°C° 0 mm 1 m/s 650 mmHg 87%
    23:00 +1°C° 0 mm 1 m/s 650 mmHg 87%

    22 Fevereiro, Sábado

    Tempo Temperatura Precipitação Vento Pressão Humidade
    00:00 +1°C° 0 mm 1 m/s 650 mmHg 86%
    01:00 +1°C° 0 mm 1 m/s 650 mmHg 86%
    02:00 +1°C° 0 mm 1 m/s 650 mmHg 85%
    03:00 +1°C° 0 mm 1 m/s 650 mmHg 85%
    04:00 +1°C° 0 mm 1 m/s 650 mmHg 85%
    05:00 +1°C° 0 mm 1 m/s 650 mmHg 85%
    06:00 +1°C° 0 mm 1 m/s 651 mmHg 84%
    07:00 +2°C° 0 mm 1 m/s 651 mmHg 83%
    08:00 +3°C° 0 mm 1 m/s 651 mmHg 82%
    09:00 +4°C° 0 mm 1 m/s 652 mmHg 82%
    10:00 +4°C° 0 mm 1 m/s 651 mmHg 83%
    11:00 +5°C° 0 mm 1 m/s 651 mmHg 84%
    12:00 +5°C° 0 mm 1 m/s 651 mmHg 86%
    13:00 +5°C° 0 mm 1 m/s 651 mmHg 86%
    14:00 +5°C° 0 mm 1 m/s 651 mmHg 86%
    15:00 +5°C° 0 mm 0 m/s 650 mmHg 86%
    16:00 +3°C° 0 mm 0 m/s 650 mmHg 87%
    17:00 +2°C° 0 mm 0 m/s 650 mmHg 89%
    18:00 +1°C° 0 mm 0 m/s 649 mmHg 91%
    19:00 +1°C° 0 mm 0 m/s 650 mmHg 89%
    20:00 +1°C° 0 mm 0 m/s 650 mmHg 87%
    21:00 +1°C° 0 mm 1 m/s 650 mmHg 85%
    22:00 +1°C° 0 mm 1 m/s 650 mmHg 83%
    23:00 +1°C° 0 mm 1 m/s 650 mmHg 81%
    Mostrar mais